Private Wetterstation Wechselburg
Wetterdaten: Freitag / Samstag, 05.07.2014
Datum Zeit Temp. +2m Bodentemp. Temp.+5cm Temp. Wind Windchill X Diff Temp. Feuchte +2m Feuchte +5cm Sonnenschein Luftdruck Regen Wind Richtung Richtung Sonnenschein UV Taupunkt Windchill Windben
04.07.2014 01:00 13,9 C 25,8 C 14,3 C 13,5 C 12,6 C 0,0 C 82 % 83 % 0 % 1018,4 hPa 0,0 l/m 0,0 km/h (0 Bft) W-SW 247 0 min 0,0 UV-I 10,9 C 12,6 C 0,0 km/h (0 Bft)
04.07.2014 01:05 13,8 C 25,8 C 14,3 C 13,4 C 12,5 C 0,0 C 82 % 83 % 0 % 1018,4 hPa 0,0 l/m 0,0 km/h (0 Bft) N 360 0 min 0,0 UV-I 10,8 C 12,5 C 0,0 km/h (0 Bft)
04.07.2014 01:10 13,8 C 25,8 C 14,3 C 13,4 C 12,5 C 0,0 C 83 % 83 % 0 % 1018,4 hPa 0,0 l/m 0,0 km/h (0 Bft) W-SW 247 0 min 0,0 UV-I 11,0 C 12,5 C 0,0 km/h (0 Bft)
04.07.2014 01:15 13,7 C 25,8 C 14,2 C 13,3 C 12,5 C 0,0 C 82 % 83 % 0 % 1018,4 hPa 0,0 l/m 0,0 km/h (0 Bft) O-SO 112 0 min 0,0 UV-I 10,7 C 12,5 C 0,0 km/h (0 Bft)
04.07.2014 01:20 13,7 C 25,8 C 14,2 C 13,3 C 12,6 C 0,0 C 83 % 83 % 0 % 1018,6 hPa 0,0 l/m 0,0 km/h (0 Bft) O 90 0 min 0,0 UV-I 10,9 C 12,6 C 0,0 km/h (0 Bft)
04.07.2014 01:25 13,6 C 25,8 C 14,2 C 13,3 C 12,7 C 0,0 C 83 % 83 % 0 % 1018,6 hPa 0,0 l/m 0,0 km/h (0 Bft) O-SO 112 0 min 0,0 UV-I 10,8 C 12,7 C 0,0 km/h (0 Bft)
04.07.2014 01:30 13,5 C 25,8 C 14,0 C 13,2 C 12,6 C 0,0 C 83 % 83 % 0 % 1018,6 hPa 0,0 l/m 0,0 km/h (0 Bft) SW 225 0 min 0,0 UV-I 10,7 C 12,6 C 0,0 km/h (0 Bft)
04.07.2014 01:35 13,4 C 25,8 C 14,0 C 13,1 C 12,5 C 0,0 C 83 % 83 % 0 % 1018,6 hPa 0,0 l/m 0,0 km/h (0 Bft) W 270 0 min 0,0 UV-I 10,6 C 12,5 C 0,0 km/h (0 Bft)
04.07.2014 01:40 13,3 C 25,8 C 14,0 C 13,0 C 12,4 C 0,0 C 83 % 84 % 0 % 1018,6 hPa 0,0 l/m 0,0 km/h (0 Bft) O 90 0 min 0,0 UV-I 10,5 C 12,4 C 0,0 km/h (0 Bft)
04.07.2014 01:45 13,2 C 25,8 C 13,9 C 13,0 C 12,5 C 0,0 C 84 % 84 % 0 % 1018,6 hPa 0,0 l/m 0,0 km/h (0 Bft) O-NO 67 0 min 0,0 UV-I 10,6 C 12,5 C 0,0 km/h (0 Bft)
04.07.2014 01:50 13,2 C 25,8 C 13,8 C 12,9 C 12,4 C 0,0 C 84 % 84 % 0 % 1018,6 hPa 0,0 l/m 0,0 km/h (0 Bft) O-NO 67 0 min 0,0 UV-I 10,6 C 12,4 C 0,0 km/h (0 Bft)
04.07.2014 01:55 13,1 C 25,8 C 13,9 C 12,8 C 12,3 C 0,0 C 84 % 84 % 0 % 1018,6 hPa 0,0 l/m 0,0 km/h (0 Bft) O-NO 67 0 min 0,0 UV-I 10,5 C 12,3 C 0,0 km/h (0 Bft)
04.07.2014 02:00 13,1 C 25,8 C 13,8 C 12,8 C 12,3 C 0,0 C 84 % 84 % 0 % 1018,6 hPa 0,0 l/m 0,0 km/h (0 Bft) O-NO 67 0 min 0,0 UV-I 10,5 C 12,3 C 0,0 km/h (0 Bft)
04.07.2014 02:05 13,1 C 25,8 C 13,8 C 12,9 C 12,4 C 0,0 C 84 % 84 % 0 % 1018,6 hPa 0,0 l/m 0,0 km/h (0 Bft) O-NO 67 0 min 0,0 UV-I 10,5 C 12,4 C 0,0 km/h (0 Bft)
04.07.2014 02:10 13,1 C 25,8 C 13,9 C 12,9 C 12,6 C 0,0 C 84 % 84 % 0 % 1018,6 hPa 0,0 l/m 0,0 km/h (0 Bft) O-NO 67 0 min 0,0 UV-I 10,5 C 12,6 C 0,0 km/h (0 Bft)
04.07.2014 02:15 13,1 C 25,8 C 13,8 C 13,0 C 12,7 C 0,0 C 84 % 84 % 0 % 1018,6 hPa 0,0 l/m 0,0 km/h (0 Bft) O 90 0 min 0,0 UV-I 10,5 C 12,7 C 0,0 km/h (0 Bft)
04.07.2014 02:20 13,1 C 25,8 C 13,8 C 13,0 C 12,7 C 0,0 C 84 % 84 % 0 % 1018,4 hPa 0,0 l/m 0,0 km/h (0 Bft) O-NO 67 0 min 0,0 UV-I 10,5 C 12,7 C 0,0 km/h (0 Bft)
04.07.2014 02:25 13,2 C 25,8 C 13,8 C 13,1 C 12,8 C 0,0 C 83 % 84 % 0 % 1018,4 hPa 0,0 l/m 0,0 km/h (0 Bft) SW 225 0 min 0,0 UV-I 10,4 C 12,8 C 0,0 km/h (0 Bft)
04.07.2014 02:30 13,1 C 25,8 C 13,6 C 12,9 C 12,6 C 0,0 C 83 % 84 % 0 % 1018,4 hPa 0,0 l/m 0,0 km/h (0 Bft) NO 45 0 min 0,0 UV-I 10,3 C 12,6 C 0,0 km/h (0 Bft)
04.07.2014 02:35 13,1 C 25,8 C 13,6 C 12,9 C 12,5 C 0,0 C 83 % 84 % 0 % 1018,4 hPa 0,0 l/m 0,0 km/h (0 Bft) W-SW 247 0 min 0,0 UV-I 10,3 C 12,5 C 0,0 km/h (0 Bft)
04.07.2014 02:40 13,1 C 25,8 C 13,6 C 12,9 C 12,5 C 0,0 C 83 % 84 % 0 % 1018,4 hPa 0,0 l/m 0,0 km/h (0 Bft) O-SO 112 0 min 0,0 UV-I 10,3 C 12,5 C 0,0 km/h (0 Bft)
04.07.2014 02:45 13,0 C 25,8 C 13,6 C 12,8 C 12,5 C 0,0 C 83 % 84 % 0 % 1018,4 hPa 0,0 l/m 0,0 km/h (0 Bft) O 90 0 min 0,0 UV-I 10,2 C 12,5 C 0,0 km/h (0 Bft)
04.07.2014 02:50 13,1 C 25,8 C 13,6 C 12,8 C 12,3 C 0,0 C 83 % 84 % 0 % 1018,4 hPa 0,0 l/m 0,0 km/h (0 Bft) S-SW 202 0 min 0,0 UV-I 10,3 C 12,3 C 0,0 km/h (0 Bft)
04.07.2014 02:55 13,0 C 25,8 C 13,5 C 12,7 C 12,2 C 0,0 C 83 % 84 % 0 % 1018,4 hPa 0,0 l/m 0,0 km/h (0 Bft) S-SW 202 0 min 0,0 UV-I 10,2 C 12,2 C 0,0 km/h (0 Bft)
04.07.2014 03:00 12,9 C 25,8 C 13,4 C 12,6 C 11,9 C 0,0 C 83 % 84 % 0 % 1018,3 hPa 0,0 l/m 0,0 km/h (0 Bft) W 270 0 min 0,0 UV-I 10,1 C 11,9 C 0,0 km/h (0 Bft)
04.07.2014 03:05 12,8 C 25,8 C 13,2 C 12,4 C 11,7 C 0,0 C 83 % 84 % 0 % 1018,3 hPa 0,0 l/m 0,0 km/h (0 Bft) NW 315 0 min 0,0 UV-I 10,0 C 11,7 C 0,0 km/h (0 Bft)
04.07.2014 03:10 12,6 C 25,8 C 13,1 C 12,2 C 11,5 C 0,0 C 83 % 84 % 0 % 1018,3 hPa 0,0 l/m 0,0 km/h (0 Bft) NW 315 0 min 0,0 UV-I 9,8 C 11,5 C 0,0 km/h (0 Bft)
04.07.2014 03:15 12,6 C 25,8 C 13,1 C 12,2 C 11,4 C 0,0 C 83 % 84 % 0 % 1018,3 hPa 0,0 l/m 0,0 km/h (0 Bft) O-NO 67 0 min 0,0 UV-I 9,8 C 11,4 C 0,0 km/h (0 Bft)
04.07.2014 03:20 12,4 C 25,8 C 13,1 C 12,1 C 11,5 C 0,0 C 84 % 85 % 0 % 1018,0 hPa 0,0 l/m 0,0 km/h (0 Bft) O-NO 67 0 min 0,0 UV-I 9,8 C 11,5 C 0,0 km/h (0 Bft)
04.07.2014 03:25 12,4 C 25,8 C 13,0 C 12,1 C 11,5 C 0,0 C 84 % 85 % 0 % 1018,0 hPa 0,0 l/m 0,0 km/h (0 Bft) O-NO 67 0 min 0,0 UV-I 9,8 C 11,5 C 0,0 km/h (0 Bft)
04.07.2014 03:30 12,3 C 25,8 C 12,9 C 12,0 C 11,5 C 0,0 C 84 % 85 % 0 % 1018,0 hPa 0,0 l/m 0,0 km/h (0 Bft) O-NO 67 0 min 0,0 UV-I 9,7 C 11,5 C 0,0 km/h (0 Bft)
04.07.2014 03:35 12,2 C 25,8 C 12,9 C 11,9 C 11,4 C 0,0 C 84 % 85 % 0 % 1018,0 hPa 0,0 l/m 0,0 km/h (0 Bft) SW 225 0 min 0,0 UV-I 9,6 C 11,4 C 0,0 km/h (0 Bft)
04.07.2014 03:40 12,1 C 25,8 C 12,8 C 11,8 C 11,3 C 0,0 C 84 % 85 % 0 % 1018,2 hPa 0,0 l/m 0,0 km/h (0 Bft) S 180 0 min 0,0 UV-I 9,5 C 11,3 C 0,0 km/h (0 Bft)
04.07.2014 03:45 12,0 C 25,8 C 12,7 C 11,7 C 11,1 C 0,0 C 84 % 85 % 0 % 1018,2 hPa 0,0 l/m 0,0 km/h (0 Bft) W-SW 247 0 min 0,0 UV-I 9,4 C 11,1 C 0,0 km/h (0 Bft)
04.07.2014 03:50 12,0 C 25,8 C 12,7 C 11,7 C 11,0 C 0,0 C 84 % 85 % 0 % 1018,2 hPa 0,0 l/m 0,0 km/h (0 Bft) NW 315 0 min 0,0 UV-I 9,4 C 11,0 C 0,0 km/h (0 Bft)
04.07.2014 03:55 11,9 C 25,8 C 12,7 C 11,6 C 11,0 C 0,0 C 84 % 85 % 0 % 1018,2 hPa 0,0 l/m 0,0 km/h (0 Bft) W 270 0 min 0,0 UV-I 9,3 C 11,0 C 0,0 km/h (0 Bft)
04.07.2014 04:00 11,7 C 25,8 C 12,5 C 11,4 C 10,9 C 0,0 C 84 % 85 % 0 % 1018,1 hPa 0,0 l/m 0,0 km/h (0 Bft) W-NW 292 0 min 0,0 UV-I 9,1 C 10,9 C 0,0 km/h (0 Bft)
04.07.2014 04:05 11,7 C 25,8 C 12,5 C 11,4 C 10,9 C 0,0 C 84 % 85 % 0 % 1018,1 hPa 0,0 l/m 0,0 km/h (0 Bft) W-NW 292 0 min 0,0 UV-I 9,1 C 10,9 C 0,0 km/h (0 Bft)
04.07.2014 04:10 11,6 C 25,8 C 12,5 C 11,3 C 10,7 C 0,0 C 84 % 85 % 0 % 1018,1 hPa 0,0 l/m 0,0 km/h (0 Bft) W-NW 292 0 min 0,0 UV-I 9,0 C 10,7 C 0,0 km/h (0 Bft)
04.07.2014 04:15 11,5 C 25,8 C 12,4 C 11,2 C 10,7 C 0,0 C 85 % 85 % 0 % 1018,1 hPa 0,0 l/m 0,0 km/h (0 Bft) W-NW 292 0 min 0,0 UV-I 9,1 C 10,7 C 0,0 km/h (0 Bft)
04.07.2014 04:20 11,4 C 25,8 C 12,3 C 11,2 C 10,7 C 0,0 C 85 % 85 % 0 % 1018,1 hPa 0,0 l/m 0,0 km/h (0 Bft) N-NW 337 0 min 0,0 UV-I 9,0 C 10,7 C 0,0 km/h (0 Bft)
04.07.2014 04:25 11,3 C 25,8 C 12,3 C 11,1 C 10,7 C 0,0 C 85 % 85 % 0 % 1018,1 hPa 0,0 l/m 0,0 km/h (0 Bft) W-SW 247 0 min 0,0 UV-I 8,9 C 10,7 C 0,0 km/h (0 Bft)
04.07.2014 04:30 11,2 C 25,8 C 12,3 C 11,0 C 10,5 C 0,0 C 85 % 85 % 0 % 1018,1 hPa 0,0 l/m 0,0 km/h (0 Bft) W-SW 247 0 min 0,0 UV-I 8,8 C 10,5 C 0,0 km/h (0 Bft)
04.07.2014 04:35 11,1 C 25,8 C 12,3 C 10,9 C 10,5 C 0,0 C 85 % 85 % 0 % 1018,1 hPa 0,0 l/m 0,0 km/h (0 Bft) O-NO 67 0 min 0,0 UV-I 8,7 C 10,5 C 0,0 km/h (0 Bft)
04.07.2014 04:40 11,1 C 25,8 C 12,3 C 11,0 C 10,7 C 0,0 C 85 % 86 % 0 % 1018,1 hPa 0,0 l/m 0,5 km/h (0 Bft) O-NO 67 0 min 0,0 UV-I 8,7 C 10,7 C 0,0 km/h (0 Bft)
04.07.2014 04:45 11,1 C 25,8 C 12,2 C 11,0 C 10,8 C 0,0 C 86 % 86 % 0 % 1018,1 hPa 0,0 l/m 0,5 km/h (0 Bft) O 90 0 min 0,0 UV-I 8,8 C 10,8 C 0,0 km/h (0 Bft)
04.07.2014 04:50 10,9 C 25,8 C 12,2 C 10,9 C 10,8 C 0,0 C 86 % 86 % 0 % 1018,1 hPa 0,0 l/m 0,0 km/h (0 Bft) O 90 0 min 0,0 UV-I 8,7 C 10,8 C 0,0 km/h (0 Bft)
04.07.2014 04:55 10,9 C 25,8 C 12,1 C 10,8 C 10,7 C 0,0 C 86 % 86 % 0 % 1018,1 hPa 0,0 l/m 0,0 km/h (0 Bft) O-NO 67 0 min 0,0 UV-I 8,7 C 10,7 C 0,0 km/h (0 Bft)
04.07.2014 05:00 10,8 C 25,8 C 12,1 C 10,8 C 10,7 C 0,0 C 86 % 86 % 0 % 1018,2 hPa 0,0 l/m 0,0 km/h (0 Bft) O-NO 67 0 min 0,0 UV-I 8,6 C 10,7 C 0,0 km/h (0 Bft)
04.07.2014 05:05 10,8 C 25,8 C 12,2 C 10,8 C 10,7 C 0,0 C 86 % 86 % 0 % 1018,2 hPa 0,0 l/m 0,0 km/h (0 Bft) SW 225 0 min 0,0 UV-I 8,6 C 10,7 C 0,0 km/h (0 Bft)
04.07.2014 05:10 10,7 C 25,8 C 12,0 C 10,6 C 10,5 C 0,0 C 86 % 86 % 0 % 1018,2 hPa 0,0 l/m 0,0 km/h (0 Bft) W 270 0 min 0,0 UV-I 8,5 C 10,5 C 0,0 km/h (0 Bft)
04.07.2014 05:15 10,6 C 25,8 C 11,9 C 10,6 C 10,5 C 0,0 C 86 % 86 % 0 % 1018,2 hPa 0,0 l/m 0,0 km/h (0 Bft) NW 315 0 min 0,0 UV-I 8,4 C 10,5 C 0,0 km/h (0 Bft)
04.07.2014 05:20 10,6 C 25,8 C 11,9 C 10,6 C 10,5 C 0,0 C 86 % 86 % 0 % 1018,1 hPa 0,0 l/m 0,0 km/h (0 Bft) W 270 0 min 0,0 UV-I 8,4 C 10,5 C 0,0 km/h (0 Bft)
04.07.2014 05:25 10,5 C 25,8 C 11,9 C 10,5 C 10,4 C 0,0 C 86 % 86 % 0 % 1018,1 hPa 0,0 l/m 0,0 km/h (0 Bft) W 270 0 min 0,0 UV-I 8,3 C 10,4 C 0,0 km/h (0 Bft)
04.07.2014 05:30 10,4 C 25,8 C 11,8 C 10,4 C 10,3 C 0,0 C 86 % 86 % 0 % 1018,1 hPa 0,0 l/m 0,0 km/h (0 Bft) W 270 0 min 0,0 UV-I 8,2 C 10,3 C 0,0 km/h (0 Bft)
04.07.2014 05:35 10,4 C 25,8 C 11,9 C 10,4 C 10,4 C 0,0 C 86 % 86 % 0 % 1018,1 hPa 0,0 l/m 0,0 km/h (0 Bft) W 270 0 min 0,0 UV-I 8,2 C 10,4 C 0,0 km/h (0 Bft)
04.07.2014 05:40 10,4 C 25,8 C 11,8 C 10,4 C 10,4 C 0,0 C 86 % 86 % 0 % 1017,9 hPa 0,0 l/m 0,0 km/h (0 Bft) W 270 0 min 0,0 UV-I 8,2 C 10,4 C 0,0 km/h (0 Bft)
04.07.2014 05:45 10,4 C 25,8 C 11,9 C 10,5 C 10,5 C 0,1 C 86 % 86 % 3 % 1017,9 hPa 0,0 l/m 0,0 km/h (0 Bft) NW 315 0 min 0,0 UV-I 8,2 C 10,5 C 0,0 km/h (0 Bft)
04.07.2014 05:50 10,3 C 25,8 C 11,9 C 10,5 C 10,5 C 0,2 C 86 % 86 % 5 % 1017,9 hPa 0,0 l/m 0,0 km/h (0 Bft) NW 315 0 min 0,0 UV-I 8,1 C 10,5 C 0,0 km/h (0 Bft)
04.07.2014 05:55 10,3 C 25,8 C 11,9 C 10,6 C 10,6 C 0,3 C 86 % 86 % 8 % 1017,9 hPa 0,0 l/m 0,0 km/h (0 Bft) NW 315 0 min 0,0 UV-I 8,1 C 10,6 C 0,0 km/h (0 Bft)
04.07.2014 06:00 10,3 C 25,8 C 11,9 C 10,7 C 10,7 C 0,4 C 86 % 86 % 11 % 1017,6 hPa 0,0 l/m 0,0 km/h (0 Bft) W 270 0 min 0,0 UV-I 8,1 C 10,7 C 0,0 km/h (0 Bft)
04.07.2014 06:05 10,3 C 25,8 C 12,0 C 10,7 C 10,7 C 0,4 C 87 % 86 % 11 % 1017,6 hPa 0,0 l/m 0,0 km/h (0 Bft) W-SW 247 0 min 0,0 UV-I 8,2 C 10,7 C 0,0 km/h (0 Bft)
04.07.2014 06:10 10,2 C 25,8 C 12,0 C 10,7 C 10,7 C 0,5 C 87 % 86 % 13 % 1017,6 hPa 0,0 l/m 0,0 km/h (0 Bft) W-SW 247 0 min 0,0 UV-I 8,1 C 10,7 C 0,0 km/h (0 Bft)
04.07.2014 06:15 10,2 C 25,8 C 12,0 C 10,7 C 10,7 C 0,5 C 87 % 86 % 13 % 1017,6 hPa 0,0 l/m 0,0 km/h (0 Bft) NW 315 0 min 0,0 UV-I 8,1 C 10,7 C 0,0 km/h (0 Bft)
04.07.2014 06:20 10,3 C 25,8 C 12,0 C 10,9 C 10,9 C 0,6 C 87 % 86 % 16 % 1017,6 hPa 0,0 l/m 0,0 km/h (0 Bft) NW 315 0 min 0,0 UV-I 8,2 C 10,9 C 0,0 km/h (0 Bft)
04.07.2014 06:25 10,3 C 25,8 C 12,1 C 11,1 C 11,1 C 0,8 C 87 % 86 % 21 % 1017,6 hPa 0,0 l/m 0,0 km/h (0 Bft) NW 315 0 min 0,0 UV-I 8,2 C 11,1 C 0,0 km/h (0 Bft)
04.07.2014 06:30 10,4 C 25,8 C 12,3 C 11,3 C 11,3 C 0,9 C 87 % 86 % 24 % 1017,6 hPa 0,0 l/m 0,0 km/h (0 Bft) SW 225 0 min 0,0 UV-I 8,3 C 11,3 C 0,0 km/h (0 Bft)
04.07.2014 06:35 10,5 C 25,8 C 12,3 C 11,3 C 11,3 C 0,8 C 87 % 86 % 21 % 1017,6 hPa 0,0 l/m 0,0 km/h (0 Bft) NW 315 0 min 0,0 UV-I 8,4 C 11,3 C 0,0 km/h (0 Bft)
04.07.2014 06:40 10,5 C 25,8 C 12,5 C 11,6 C 11,6 C 1,1 C 88 % 86 % 29 % 1017,4 hPa 0,0 l/m 0,0 km/h (0 Bft) W 270 0 min 0,0 UV-I 8,6 C 11,6 C 0,0 km/h (0 Bft)
04.07.2014 06:45 10,5 C 25,8 C 12,7 C 11,8 C 11,8 C 1,3 C 88 % 86 % 34 % 1017,4 hPa 0,0 l/m 0,0 km/h (0 Bft) W 270 0 min 0,0 UV-I 8,6 C 11,8 C 0,0 km/h (0 Bft)
04.07.2014 06:50 10,7 C 25,8 C 12,9 C 12,2 C 12,2 C 1,5 C 88 % 86 % 39 % 1017,4 hPa 0,0 l/m 0,0 km/h (0 Bft) SW 225 0 min 0,0 UV-I 8,8 C 12,2 C 0,0 km/h (0 Bft)
04.07.2014 06:55 10,7 C 25,8 C 13,2 C 12,5 C 12,5 C 1,8 C 88 % 86 % 47 % 1017,4 hPa 0,0 l/m 0,0 km/h (0 Bft) SW 225 0 min 0,0 UV-I 8,8 C 12,5 C 0,0 km/h (0 Bft)
04.07.2014 07:00 10,8 C 25,8 C 13,5 C 13,0 C 13,0 C 2,2 C 88 % 86 % 58 % 1017,1 hPa 0,0 l/m 0,0 km/h (0 Bft) SW 225 0 min 0,0 UV-I 8,9 C 13,0 C 0,0 km/h (0 Bft)
04.07.2014 07:05 10,9 C 25,8 C 13,9 C 15,4 C 15,4 C 4,5 C 88 % 86 % 100 % 1017,1 hPa 0,0 l/m 0,0 km/h (0 Bft) S 180 5 min 0,0 UV-I 9,0 C 15,4 C 0,0 km/h (0 Bft)
04.07.2014 07:10 11,2 C 25,8 C 14,0 C 19,3 C 19,3 C 8,1 C 89 % 85 % 100 % 1017,1 hPa 0,0 l/m 0,0 km/h (0 Bft) W 270 5 min 0,0 UV-I 9,5 C 19,3 C 0,0 km/h (0 Bft)
04.07.2014 07:15 11,5 C 25,8 C 14,3 C 21,4 C 21,4 C 9,9 C 89 % 85 % 100 % 1017,1 hPa 0,0 l/m 0,0 km/h (0 Bft) W 270 5 min 0,0 UV-I 9,8 C 21,4 C 0,0 km/h (0 Bft)
04.07.2014 07:20 11,9 C 25,8 C 14,7 C 23,4 C 23,4 C 11,5 C 89 % 85 % 100 % 1016,9 hPa 0,0 l/m 0,0 km/h (0 Bft) W-NW 292 5 min 0,0 UV-I 10,1 C 23,4 C 0,0 km/h (0 Bft)
04.07.2014 07:25 12,3 C 25,8 C 14,8 C 24,2 C 24,2 C 11,9 C 89 % 84 % 100 % 1016,9 hPa 0,0 l/m 0,0 km/h (0 Bft) W 270 5 min 0,2 UV-I 10,5 C 24,2 C 0,0 km/h (0 Bft)
04.07.2014 07:30 13,0 C 25,8 C 15,2 C 25,4 C 25,4 C 12,4 C 88 % 84 % 100 % 1016,9 hPa 0,0 l/m 0,0 km/h (0 Bft) NW 315 5 min 0,0 UV-I 11,1 C 25,4 C 0,0 km/h (0 Bft)
04.07.2014 07:35 13,5 C 25,8 C 15,2 C 26,0 C 26,0 C 12,5 C 88 % 83 % 100 % 1016,9 hPa 0,0 l/m 0,0 km/h (0 Bft) W-SW 247 5 min 0,0 UV-I 11,6 C 26,0 C 0,0 km/h (0 Bft)
04.07.2014 07:40 14,3 C 25,8 C 15,7 C 26,9 C 26,9 C 12,6 C 86 % 83 % 100 % 1016,9 hPa 0,0 l/m 0,0 km/h (0 Bft) SW 225 5 min 0,0 UV-I 12,0 C 26,9 C 0,0 km/h (0 Bft)
04.07.2014 07:45 14,7 C 25,8 C 15,7 C 27,5 C 27,5 C 12,8 C 86 % 82 % 100 % 1016,9 hPa 0,0 l/m 0,0 km/h (0 Bft) W-SW 247 5 min 0,0 UV-I 12,4 C 27,5 C 0,0 km/h (0 Bft)
04.07.2014 07:50 15,7 C 25,8 C 15,9 C 28,3 C 28,3 C 12,6 C 85 % 82 % 100 % 1016,9 hPa 0,0 l/m 0,0 km/h (0 Bft) W 270 5 min 0,0 UV-I 13,2 C 28,3 C 0,0 km/h (0 Bft)
04.07.2014 07:55 16,3 C 25,8 C 16,1 C 28,7 C 28,7 C 12,4 C 83 % 81 % 100 % 1016,9 hPa 0,0 l/m 0,0 km/h (0 Bft) SW 225 5 min 0,0 UV-I 13,4 C 28,7 C 0,0 km/h (0 Bft)
04.07.2014 08:00 17,2 C 25,8 C 16,2 C 29,2 C 29,2 C 12,0 C 81 % 81 % 100 % 1016,6 hPa 0,0 l/m 0,0 km/h (0 Bft) W-SW 247 5 min 0,0 UV-I 13,9 C 29,2 C 0,0 km/h (0 Bft)
04.07.2014 08:05 17,8 C 25,8 C 16,4 C 29,6 C 29,6 C 11,8 C 80 % 81 % 100 % 1016,6 hPa 0,0 l/m 0,0 km/h (0 Bft) W-SW 247 5 min 0,0 UV-I 14,3 C 29,6 C 0,0 km/h (0 Bft)
04.07.2014 08:10 18,6 C 25,8 C 16,5 C 30,1 C 30,1 C 11,5 C 78 % 81 % 100 % 1016,6 hPa 0,0 l/m 0,0 km/h (0 Bft) S-SW 202 5 min 0,0 UV-I 14,7 C 30,1 C 0,0 km/h (0 Bft)
04.07.2014 08:15 19,1 C 25,8 C 16,7 C 30,3 C 30,3 C 11,2 C 77 % 81 % 100 % 1016,6 hPa 0,0 l/m 0,0 km/h (0 Bft) NW 315 5 min 0,0 UV-I 15,0 C 30,3 C 0,0 km/h (0 Bft)
04.07.2014 08:20 19,6 C 25,8 C 17,0 C 30,8 C 30,8 C 11,2 C 75 % 80 % 100 % 1016,7 hPa 0,0 l/m 0,0 km/h (0 Bft) N-NW 337 5 min 0,0 UV-I 15,0 C 30,8 C 0,0 km/h (0 Bft)
04.07.2014 08:25 20,1 C 25,8 C 17,1 C 31,2 C 31,2 C 11,1 C 74 % 80 % 100 % 1016,7 hPa 0,0 l/m 0,0 km/h (0 Bft) N-NO 22 5 min 0,0 UV-I 15,3 C 31,2 C 0,0 km/h (0 Bft)
04.07.2014 08:30 21,0 C 25,8 C 17,7 C 31,8 C 31,8 C 10,8 C 72 % 80 % 100 % 1016,7 hPa 0,0 l/m 0,0 km/h (0 Bft) W 270 5 min 0,0 UV-I 15,8 C 31,8 C 0,0 km/h (0 Bft)
04.07.2014 08:35 21,5 C 25,8 C 17,9 C 32,2 C 32,2 C 10,7 C 71 % 80 % 100 % 1016,7 hPa 0,0 l/m 0,0 km/h (0 Bft) N-NO 22 5 min 0,0 UV-I 16,0 C 32,2 C 0,0 km/h (0 Bft)
04.07.2014 08:40 21,9 C 25,8 C 18,3 C 32,8 C 32,8 C 10,9 C 68 % 79 % 100 % 1016,6 hPa 0,0 l/m 0,0 km/h (0 Bft) W 270 5 min 0,0 UV-I 15,7 C 32,8 C 0,0 km/h (0 Bft)
04.07.2014 08:45 22,0 C 25,8 C 18,3 C 33,3 C 33,3 C 11,3 C 67 % 79 % 100 % 1016,6 hPa 0,0 l/m 0,0 km/h (0 Bft) W-SW 247 5 min 0,0 UV-I 15,6 C 33,3 C 0,0 km/h (0 Bft)
04.07.2014 08:50 22,4 C 25,8 C 18,6 C 33,8 C 33,8 C 11,4 C 65 % 78 % 100 % 1016,6 hPa 0,0 l/m 0,0 km/h (0 Bft) SW 225 5 min 0,0 UV-I 15,5 C 33,8 C 0,0 km/h (0 Bft)
04.07.2014 08:55 22,8 C 25,8 C 18,7 C 34,3 C 34,3 C 11,5 C 64 % 77 % 100 % 1016,6 hPa 0,0 l/m 0,0 km/h (0 Bft) SW 225 5 min 0,0 UV-I 15,6 C 34,3 C 0,0 km/h (0 Bft)
04.07.2014 09:00 23,2 C 25,8 C 18,9 C 34,7 C 34,7 C 11,5 C 63 % 77 % 100 % 1016,6 hPa 0,0 l/m 0,0 km/h (0 Bft) W-SW 247 5 min 0,0 UV-I 15,8 C 34,7 C 0,0 km/h (0 Bft)
04.07.2014 09:05 23,5 C 25,8 C 19,0 C 35,0 C 35,0 C 11,5 C 62 % 77 % 100 % 1016,6 hPa 0,0 l/m 0,0 km/h (0 Bft) W 270 5 min 0,0 UV-I 15,8 C 35,0 C 0,0 km/h (0 Bft)
04.07.2014 09:10 24,2 C 25,8 C 19,3 C 35,2 C 35,2 C 11,0 C 60 % 76 % 100 % 1016,6 hPa 0,0 l/m 0,0 km/h (0 Bft) S 180 5 min 0,1 UV-I 15,9 C 35,2 C 0,0 km/h (0 Bft)
04.07.2014 09:15 24,6 C 25,8 C 19,5 C 35,2 C 35,2 C 10,6 C 59 % 76 % 100 % 1016,6 hPa 0,0 l/m 0,2 km/h (0 Bft) W-SW 247 5 min 0,1 UV-I 16,0 C 35,2 C 0,0 km/h (0 Bft)
04.07.2014 09:20 25,3 C 25,8 C 19,6 C 35,5 C 35,5 C 10,2 C 57 % 75 % 100 % 1016,2 hPa 0,0 l/m 0,2 km/h (0 Bft) S-SW 202 5 min 0,1 UV-I 16,2 C 35,5 C 2,6 km/h (1 Bft)
04.07.2014 09:25 25,7 C 25,8 C 19,8 C 35,7 C 35,7 C 10,0 C 56 % 74 % 100 % 1016,2 hPa 0,0 l/m 0,2 km/h (0 Bft) NW 315 5 min 0,1 UV-I 16,2 C 35,7 C 0,0 km/h (0 Bft)
04.07.2014 09:30 26,3 C 25,8 C 20,0 C 36,2 C 36,2 C 9,9 C 53 % 73 % 100 % 1016,2 hPa 0,0 l/m 0,0 km/h (0 Bft) SW 225 5 min 0,1 UV-I 15,9 C 36,2 C 0,0 km/h (0 Bft)
04.07.2014 09:35 26,9 C 24,9 C 20,2 C 36,4 C 36,4 C 9,5 C 51 % 72 % 100 % 1016,2 hPa 0,0 l/m 0,0 km/h (0 Bft) SW 225 5 min 0,1 UV-I 15,9 C 36,4 C 3,5 km/h (1 Bft)
04.07.2014 09:40 27,1 C 24,9 C 20,3 C 36,7 C 36,7 C 9,6 C 48 % 70 % 100 % 1016,2 hPa 0,0 l/m 0,2 km/h (0 Bft) SW 225 5 min 0,1 UV-I 15,1 C 36,7 C 1,6 km/h (1 Bft)
04.07.2014 09:45 27,1 C 24,8 C 20,4 C 36,8 C 36,8 C 9,7 C 47 % 69 % 100 % 1016,2 hPa 0,0 l/m 0,3 km/h (0 Bft) S 180 5 min 0,1 UV-I 14,8 C 36,8 C 0,0 km/h (0 Bft)
04.07.2014 09:50 26,9 C 24,8 C 20,6 C 37,0 C 37,0 C 10,1 C 46 % 68 % 100 % 1016,2 hPa 0,0 l/m 0,2 km/h (0 Bft) SW 225 5 min 0,1 UV-I 14,3 C 37,0 C 0,0 km/h (0 Bft)
04.07.2014 09:55 26,7 C 24,8 C 20,7 C 36,9 C 36,9 C 10,2 C 45 % 67 % 100 % 1016,2 hPa 0,0 l/m 0,3 km/h (0 Bft) SO 135 5 min 0,0 UV-I 13,8 C 36,9 C 0,0 km/h (0 Bft)
04.07.2014 10:00 26,5 C 24,8 C 20,9 C 37,0 C 37,0 C 10,5 C 46 % 66 % 100 % 1015,8 hPa 0,0 l/m 0,2 km/h (0 Bft) SO 135 5 min 0,0 UV-I 13,9 C 37,0 C 1,6 km/h (1 Bft)
04.07.2014 10:05 26,5 C 24,8 C 21,0 C 36,9 C 36,9 C 10,4 C 45 % 66 % 100 % 1015,8 hPa 0,0 l/m 0,2 km/h (0 Bft) SW 225 5 min 0,0 UV-I 13,6 C 36,9 C 0,0 km/h (0 Bft)
04.07.2014 10:10 26,4 C 24,8 C 21,2 C 36,4 C 36,4 C 10,0 C 43 % 64 % 100 % 1015,8 hPa 0,0 l/m 0,8 km/h (0 Bft) SO 135 5 min 0,0 UV-I 12,8 C 36,4 C 4,2 km/h (1 Bft)
04.07.2014 10:15 26,3 C 24,8 C 21,3 C 36,1 C 36,1 C 9,8 C 43 % 63 % 100 % 1015,8 hPa 0,0 l/m 1,0 km/h (0 Bft) SO 135 5 min 0,0 UV-I 12,7 C 36,1 C 0,0 km/h (0 Bft)
04.07.2014 10:20 26,2 C 24,9 C 21,5 C 36,1 C 36,1 C 9,9 C 43 % 62 % 100 % 1015,6 hPa 0,0 l/m 0,5 km/h (0 Bft) SW 225 5 min 0,0 UV-I 12,6 C 36,1 C 0,0 km/h (0 Bft)
04.07.2014 10:25 26,2 C 24,9 C 21,6 C 36,2 C 36,2 C 10,0 C 43 % 61 % 100 % 1015,6 hPa 0,0 l/m 0,3 km/h (0 Bft) W 270 5 min 0,0 UV-I 12,6 C 36,2 C 1,9 km/h (1 Bft)
04.07.2014 10:30 26,3 C 24,9 C 21,9 C 36,0 C 36,0 C 9,7 C 43 % 61 % 100 % 1015,6 hPa 0,0 l/m 0,8 km/h (0 Bft) W-NW 292 5 min 0,0 UV-I 12,7 C 36,0 C 5,0 km/h (1 Bft)
04.07.2014 10:35 26,2 C 24,9 C 22,0 C 35,9 C 35,9 C 9,7 C 43 % 60 % 100 % 1015,6 hPa 0,0 l/m 0,8 km/h (0 Bft) O-NO 67 5 min 0,0 UV-I 12,6 C 35,9 C 1,6 km/h (1 Bft)
04.07.2014 10:40 26,5 C 24,8 C 22,0 C 36,1 C 36,1 C 9,6 C 43 % 59 % 100 % 1015,4 hPa 0,0 l/m 0,3 km/h (0 Bft) S-SW 202 5 min 0,0 UV-I 12,9 C 36,1 C 2,7 km/h (1 Bft)
04.07.2014 10:45 26,9 C 24,8 C 22,3 C 36,0 C 36,0 C 9,1 C 42 % 59 % 100 % 1015,4 hPa 0,0 l/m 0,5 km/h (0 Bft) S 180 5 min 0,0 UV-I 12,9 C 36,0 C 1,9 km/h (1 Bft)
04.07.2014 10:50 27,2 C 25,0 C 22,4 C 36,1 C 36,1 C 8,9 C 42 % 58 % 100 % 1015,4 hPa 0,0 l/m 0,6 km/h (0 Bft) SW 225 5 min 0,0 UV-I 13,2 C 36,1 C 3,7 km/h (1 Bft)
04.07.2014 10:55 27,3 C 25,0 C 22,5 C 36,0 C 36,0 C 8,7 C 41 % 58 % 100 % 1015,4 hPa 0,0 l/m 0,6 km/h (0 Bft) S-SO 157 5 min 0,0 UV-I 12,9 C 36,0 C 0,0 km/h (0 Bft)
04.07.2014 11:00 27,6 C 25,0 C 23,0 C 35,4 C 35,4 C 7,8 C 40 % 56 % 100 % 1015,2 hPa 0,0 l/m 1,8 km/h (1 Bft) S-SO 157 5 min 0,1 UV-I 12,8 C 35,4 C 11,1 km/h (2 Bft)
04.07.2014 11:05 27,6 C 25,0 C 23,2 C 35,0 C 35,0 C 7,4 C 40 % 57 % 100 % 1015,2 hPa 0,0 l/m 1,8 km/h (1 Bft) S-SO 157 5 min 0,1 UV-I 12,8 C 35,0 C 0,0 km/h (0 Bft)
04.07.2014 11:10 27,9 C 24,9 C 23,3 C 34,7 C 34,7 C 6,8 C 40 % 54 % 100 % 1015,2 hPa 0,0 l/m 1,9 km/h (1 Bft) O-NO 67 5 min 0,1 UV-I 13,0 C 34,7 C 3,9 km/h (1 Bft)
04.07.2014 11:15 28,0 C 24,9 C 23,8 C 34,0 C 34,0 C 6,0 C 38 % 54 % 100 % 1015,2 hPa 0,0 l/m 2,9 km/h (1 Bft) O 90 5 min 0,1 UV-I 12,3 C 34,0 C 9,2 km/h (2 Bft)
04.07.2014 11:20 27,7 C 24,9 C 24,2 C 32,7 C 32,7 C 5,0 C 38 % 54 % 100 % 1015,1 hPa 0,0 l/m 5,3 km/h (1 Bft) O-NO 67 5 min 0,1 UV-I 12,1 C 32,7 C 6,3 km/h (2 Bft)
04.07.2014 11:25 27,6 C 24,9 C 24,4 C 32,3 C 32,3 C 4,7 C 39 % 53 % 100 % 1015,1 hPa 0,0 l/m 5,6 km/h (1 Bft) O-NO 67 5 min 0,1 UV-I 12,4 C 32,3 C 4,0 km/h (1 Bft)
04.07.2014 11:30 27,5 C 24,9 C 24,5 C 32,4 C 32,4 C 4,9 C 39 % 52 % 100 % 1015,1 hPa 0,0 l/m 4,2 km/h (1 Bft) W-NW 292 5 min 0,0 UV-I 12,3 C 32,4 C 1,8 km/h (1 Bft)
04.07.2014 11:35 27,5 C 24,9 C 24,4 C 32,7 C 32,7 C 5,2 C 39 % 53 % 100 % 1015,1 hPa 0,0 l/m 3,5 km/h (1 Bft) O-NO 67 5 min 0,0 UV-I 12,3 C 32,7 C 10,0 km/h (2 Bft)
04.07.2014 11:40 27,6 C 24,9 C 24,7 C 32,2 C 32,2 C 4,6 C 40 % 53 % 100 % 1014,8 hPa 0,0 l/m 4,5 km/h (1 Bft) O-NO 67 5 min 0,0 UV-I 12,8 C 32,2 C 12,7 km/h (3 Bft)
04.07.2014 11:45 27,6 C 24,9 C 24,5 C 32,9 C 32,9 C 5,3 C 40 % 53 % 100 % 1014,8 hPa 0,0 l/m 4,2 km/h (1 Bft) SW 225 5 min 0,0 UV-I 12,8 C 32,9 C 0,0 km/h (0 Bft)
04.07.2014 11:50 27,6 C 24,9 C 24,7 C 33,8 C 33,8 C 6,2 C 39 % 52 % 100 % 1014,8 hPa 0,0 l/m 1,6 km/h (1 Bft) O-SO 112 5 min 0,0 UV-I 12,4 C 33,8 C 3,5 km/h (1 Bft)
04.07.2014 11:55 27,7 C 24,9 C 24,5 C 34,1 C 34,1 C 6,4 C 39 % 52 % 100 % 1014,8 hPa 0,0 l/m 1,8 km/h (1 Bft) O-NO 67 5 min 0,0 UV-I 12,5 C 34,1 C 4,2 km/h (1 Bft)
04.07.2014 12:00 27,8 C 24,9 C 24,9 C 33,8 C 33,8 C 6,0 C 39 % 52 % 100 % 1014,3 hPa 0,0 l/m 2,6 km/h (1 Bft) W-NW 292 5 min 0,0 UV-I 12,6 C 33,8 C 1,8 km/h (1 Bft)
04.07.2014 12:05 27,9 C 24,9 C 25,2 C 33,4 C 33,4 C 5,5 C 39 % 51 % 100 % 1014,3 hPa 0,0 l/m 4,0 km/h (1 Bft) O-NO 67 5 min 0,0 UV-I 12,6 C 33,4 C 3,4 km/h (1 Bft)
04.07.2014 12:10 28,1 C 24,9 C 25,4 C 32,9 C 32,9 C 4,8 C 39 % 50 % 100 % 1014,3 hPa 0,0 l/m 4,8 km/h (1 Bft) O-SO 112 5 min 0,0 UV-I 12,8 C 32,9 C 2,3 km/h (1 Bft)
04.07.2014 12:15 28,1 C 24,9 C 25,4 C 32,7 C 32,7 C 4,6 C 38 % 50 % 100 % 1014,3 hPa 0,0 l/m 5,1 km/h (1 Bft) O-SO 112 5 min 0,0 UV-I 12,4 C 32,7 C 6,3 km/h (2 Bft)
04.07.2014 12:20 28,3 C 24,9 C 25,6 C 32,9 C 32,9 C 4,6 C 39 % 49 % 100 % 1014,2 hPa 0,0 l/m 4,0 km/h (1 Bft) O 90 5 min 0,0 UV-I 13,0 C 32,9 C 16,4 km/h (3 Bft)
04.07.2014 12:25 28,5 C 24,9 C 25,7 C 33,2 C 33,2 C 4,7 C 38 % 48 % 100 % 1014,2 hPa 0,0 l/m 3,5 km/h (1 Bft) O 90 5 min 0,0 UV-I 12,8 C 33,2 C 5,8 km/h (2 Bft)
04.07.2014 12:30 28,7 C 25,2 C 25,7 C 33,2 C 33,2 C 4,5 C 37 % 50 % 100 % 1014,2 hPa 0,0 l/m 3,5 km/h (1 Bft) S-SO 157 5 min 0,1 UV-I 12,5 C 33,2 C 5,0 km/h (1 Bft)
04.07.2014 12:35 28,5 C 25,2 C 25,8 C 32,7 C 32,7 C 4,2 C 37 % 47 % 100 % 1014,2 hPa 0,0 l/m 4,7 km/h (1 Bft) S-SO 157 5 min 0,1 UV-I 12,4 C 32,7 C 1,6 km/h (1 Bft)
04.07.2014 12:40 28,5 C 25,3 C 25,9 C 32,5 C 32,5 C 4,0 C 38 % 48 % 100 % 1014,0 hPa 0,0 l/m 4,3 km/h (1 Bft) O-NO 67 5 min 0,1 UV-I 12,8 C 32,5 C 2,6 km/h (1 Bft)
04.07.2014 12:45 28,6 C 25,3 C 26,0 C 33,1 C 33,1 C 4,5 C 38 % 48 % 100 % 1014,0 hPa 0,0 l/m 2,9 km/h (1 Bft) N-NW 337 5 min 0,1 UV-I 12,9 C 33,1 C 1,9 km/h (1 Bft)
04.07.2014 12:50 28,8 C 25,3 C 26,3 C 33,6 C 33,6 C 4,8 C 37 % 48 % 100 % 1014,0 hPa 0,0 l/m 3,7 km/h (1 Bft) O-NO 67 5 min 0,1 UV-I 12,6 C 33,6 C 6,3 km/h (2 Bft)
04.07.2014 12:55 28,7 C 25,3 C 26,3 C 33,1 C 33,1 C 4,4 C 37 % 48 % 100 % 1014,0 hPa 0,0 l/m 4,8 km/h (1 Bft) NO 45 5 min 0,1 UV-I 12,5 C 33,1 C 3,1 km/h (1 Bft)
04.07.2014 13:00 28,6 C 25,3 C 26,4 C 32,9 C 32,9 C 4,3 C 35 % 47 % 100 % 1013,7 hPa 0,0 l/m 5,3 km/h (1 Bft) O-NO 67 5 min 0,1 UV-I 11,6 C 32,9 C 8,0 km/h (2 Bft)
04.07.2014 13:05 28,6 C 25,3 C 26,3 C 32,8 C 32,8 C 4,2 C 37 % 46 % 100 % 1013,7 hPa 0,0 l/m 4,2 km/h (1 Bft) N-NO 22 5 min 0,1 UV-I 12,5 C 32,8 C 0,0 km/h (0 Bft)
04.07.2014 13:10 28,9 C 25,3 C 26,1 C 32,8 C 32,8 C 3,9 C 36 % 47 % 100 % 1013,7 hPa 0,0 l/m 2,1 km/h (1 Bft) O 90 5 min 0,1 UV-I 12,3 C 32,8 C 3,5 km/h (1 Bft)
04.07.2014 13:15 28,8 C 25,3 C 26,3 C 32,8 C 32,8 C 4,0 C 35 % 47 % 100 % 1013,7 hPa 0,0 l/m 2,7 km/h (1 Bft) NO 45 5 min 0,1 UV-I 11,8 C 32,8 C 5,0 km/h (1 Bft)
04.07.2014 13:20 28,9 C 25,3 C 26,5 C 33,6 C 33,6 C 4,7 C 37 % 47 % 100 % 1013,4 hPa 0,0 l/m 3,1 km/h (1 Bft) N-NW 337 5 min 0,1 UV-I 12,7 C 33,6 C 2,3 km/h (1 Bft)
04.07.2014 13:25 29,5 C 25,3 C 26,4 C 34,2 C 34,2 C 4,7 C 37 % 46 % 100 % 1013,4 hPa 0,0 l/m 1,8 km/h (1 Bft) W 270 5 min 0,1 UV-I 13,3 C 34,2 C 2,1 km/h (1 Bft)
04.07.2014 13:30 30,0 C 25,3 C 26,4 C 34,9 C 34,9 C 4,9 C 36 % 46 % 100 % 1013,4 hPa 0,0 l/m 1,6 km/h (1 Bft) SO 135 5 min 0,1 UV-I 13,3 C 34,9 C 0,0 km/h (0 Bft)
04.07.2014 13:35 30,3 C 25,4 C 26,5 C 35,0 C 35,0 C 4,7 C 35 % 46 % 100 % 1013,4 hPa 0,0 l/m 2,1 km/h (1 Bft) O-NO 67 5 min 0,1 UV-I 13,1 C 35,0 C 7,1 km/h (2 Bft)
04.07.2014 13:40 29,4 C 25,5 C 26,6 C 34,2 C 34,2 C 4,8 C 36 % 47 % 100 % 1013,1 hPa 0,0 l/m 3,4 km/h (1 Bft) NO 45 5 min 0,1 UV-I 12,7 C 34,2 C 4,7 km/h (1 Bft)
04.07.2014 13:45 29,1 C 25,5 C 26,9 C 33,6 C 33,6 C 4,5 C 35 % 46 % 100 % 1013,1 hPa 0,0 l/m 5,1 km/h (1 Bft) O-NO 67 5 min 0,1 UV-I 12,1 C 33,6 C 8,0 km/h (2 Bft)
04.07.2014 13:50 28,8 C 25,5 C 26,7 C 32,2 C 32,2 C 3,4 C 37 % 46 % 89 % 1013,1 hPa 0,0 l/m 5,0 km/h (1 Bft) O-SO 112 5 min 0,1 UV-I 12,6 C 32,2 C 2,4 km/h (1 Bft)
04.07.2014 13:55 28,8 C 25,5 C 26,7 C 32,3 C 32,3 C 3,5 C 36 % 46 % 92 % 1013,1 hPa 0,0 l/m 3,7 km/h (1 Bft) S 180 5 min 0,1 UV-I 12,2 C 32,3 C 1,9 km/h (1 Bft)
04.07.2014 14:00 28,8 C 25,5 C 26,7 C 32,2 C 32,2 C 3,4 C 34 % 46 % 89 % 1012,8 hPa 0,0 l/m 2,7 km/h (1 Bft) O-NO 67 5 min 0,1 UV-I 11,4 C 32,2 C 6,3 km/h (2 Bft)
04.07.2014 14:05 28,7 C 25,5 C 26,7 C 31,7 C 31,7 C 3,0 C 36 % 46 % 79 % 1012,8 hPa 0,0 l/m 2,9 km/h (1 Bft) O 90 0 min 0,1 UV-I 12,1 C 31,7 C 2,4 km/h (1 Bft)
04.07.2014 14:10 28,4 C 25,5 C 26,7 C 31,9 C 31,9 C 3,5 C 36 % 45 % 92 % 1012,8 hPa 0,0 l/m 4,5 km/h (1 Bft) O 90 5 min 0,1 UV-I 11,9 C 31,9 C 10,6 km/h (2 Bft)
04.07.2014 14:15 28,4 C 25,5 C 26,8 C 31,9 C 31,9 C 3,5 C 37 % 47 % 92 % 1012,8 hPa 0,0 l/m 4,5 km/h (1 Bft) O-NO 67 5 min 0,1 UV-I 12,3 C 31,9 C 6,6 km/h (2 Bft)
04.07.2014 14:20 28,6 C 25,5 C 26,8 C 32,7 C 32,7 C 4,1 C 37 % 47 % 100 % 1012,7 hPa 0,0 l/m 4,2 km/h (1 Bft) O-NO 67 5 min 0,1 UV-I 12,5 C 32,7 C 5,3 km/h (1 Bft)
04.07.2014 14:25 28,7 C 25,5 C 26,9 C 32,9 C 32,9 C 4,2 C 37 % 47 % 100 % 1012,7 hPa 0,0 l/m 3,9 km/h (1 Bft) N-NO 22 5 min 0,1 UV-I 12,5 C 32,9 C 6,1 km/h (2 Bft)
04.07.2014 14:30 28,6 C 25,5 C 27,1 C 32,6 C 32,6 C 4,0 C 37 % 46 % 100 % 1012,7 hPa 0,0 l/m 6,3 km/h (2 Bft) O-NO 67 5 min 0,1 UV-I 12,5 C 32,6 C 10,1 km/h (2 Bft)
04.07.2014 14:35 28,6 C 25,5 C 27,1 C 32,3 C 32,3 C 3,7 C 36 % 45 % 97 % 1012,7 hPa 0,0 l/m 6,8 km/h (2 Bft) N-NO 22 5 min 0,1 UV-I 12,0 C 32,3 C 5,0 km/h (1 Bft)
04.07.2014 14:40 28,9 C 25,7 C 27,2 C 33,4 C 33,4 C 4,5 C 38 % 46 % 100 % 1012,0 hPa 0,0 l/m 3,4 km/h (1 Bft) O-SO 112 5 min 0,1 UV-I 13,1 C 33,4 C 6,0 km/h (2 Bft)
04.07.2014 14:45 29,1 C 25,7 C 27,4 C 33,8 C 33,8 C 4,7 C 37 % 46 % 100 % 1012,0 hPa 0,0 l/m 2,6 km/h (1 Bft) O-SO 112 5 min 0,1 UV-I 12,9 C 33,8 C 4,5 km/h (1 Bft)
04.07.2014 14:50 29,1 C 25,7 C 27,4 C 33,8 C 33,8 C 4,7 C 36 % 46 % 100 % 1012,0 hPa 0,0 l/m 4,0 km/h (1 Bft) O-NO 67 5 min 0,1 UV-I 12,5 C 33,8 C 7,2 km/h (2 Bft)
04.07.2014 14:55 29,0 C 25,7 C 27,4 C 33,4 C 33,4 C 4,4 C 37 % 46 % 100 % 1012,0 hPa 0,0 l/m 4,7 km/h (1 Bft) O-NO 67 5 min 0,1 UV-I 12,8 C 33,4 C 5,8 km/h (2 Bft)
04.07.2014 15:00 29,3 C 25,8 C 27,4 C 33,9 C 33,9 C 4,6 C 37 % 45 % 100 % 1011,8 hPa 0,0 l/m 3,7 km/h (1 Bft) SO 135 5 min 0,1 UV-I 13,1 C 33,9 C 2,1 km/h (1 Bft)
04.07.2014 15:05 29,3 C 25,8 C 27,5 C 34,0 C 34,0 C 4,7 C 36 % 44 % 100 % 1011,8 hPa 0,0 l/m 3,1 km/h (1 Bft) O 90 5 min 0,1 UV-I 12,7 C 34,0 C 7,6 km/h (2 Bft)
04.07.2014 15:10 29,3 C 25,9 C 27,5 C 33,7 C 33,7 C 4,4 C 36 % 45 % 100 % 1011,8 hPa 0,0 l/m 4,0 km/h (1 Bft) W 270 5 min 0,1 UV-I 12,7 C 33,7 C 1,6 km/h (1 Bft)
04.07.2014 15:15 29,5 C 25,9 C 27,4 C 34,2 C 34,2 C 4,7 C 37 % 45 % 100 % 1011,8 hPa 0,0 l/m 3,1 km/h (1 Bft) SO 135 5 min 0,1 UV-I 13,3 C 34,2 C 2,7 km/h (1 Bft)
04.07.2014 15:20 29,7 C 25,9 C 27,5 C 34,6 C 34,6 C 4,9 C 37 % 45 % 100 % 1011,3 hPa 0,0 l/m 1,8 km/h (1 Bft) NO 45 5 min 0,1 UV-I 13,4 C 34,6 C 0,0 km/h (0 Bft)
04.07.2014 15:25 29,8 C 25,9 C 27,6 C 35,0 C 35,0 C 5,2 C 37 % 45 % 100 % 1011,3 hPa 0,0 l/m 1,8 km/h (1 Bft) W 270 5 min 0,1 UV-I 13,5 C 35,0 C 1,8 km/h (1 Bft)
04.07.2014 15:30 29,4 C 25,9 C 27,6 C 34,0 C 34,0 C 4,6 C 35 % 44 % 100 % 1011,3 hPa 0,0 l/m 4,8 km/h (1 Bft) O 90 5 min 0,1 UV-I 12,3 C 34,0 C 8,2 km/h (2 Bft)
04.07.2014 15:35 29,2 C 25,9 C 27,5 C 33,2 C 33,2 C 4,0 C 36 % 43 % 100 % 1011,3 hPa 0,0 l/m 7,1 km/h (2 Bft) O-SO 112 5 min 0,1 UV-I 12,6 C 33,2 C 4,0 km/h (1 Bft)
04.07.2014 15:40 29,3 C 26,0 C 27,6 C 33,2 C 33,2 C 3,9 C 37 % 46 % 100 % 1011,1 hPa 0,0 l/m 5,1 km/h (1 Bft) O 90 5 min 0,1 UV-I 13,1 C 33,2 C 5,3 km/h (1 Bft)
04.07.2014 15:45 29,4 C 26,0 C 27,6 C 33,2 C 33,2 C 3,8 C 36 % 45 % 100 % 1011,1 hPa 0,0 l/m 5,0 km/h (1 Bft) O-NO 67 5 min 0,1 UV-I 12,7 C 33,2 C 7,1 km/h (2 Bft)
04.07.2014 15:50 29,2 C 26,0 C 27,5 C 32,7 C 32,7 C 3,5 C 37 % 45 % 92 % 1011,1 hPa 0,0 l/m 6,9 km/h (2 Bft) O-SO 112 5 min 0,1 UV-I 13,0 C 32,7 C 7,2 km/h (2 Bft)
04.07.2014 15:55 29,2 C 26,0 C 27,5 C 32,5 C 32,5 C 3,3 C 37 % 47 % 87 % 1011,1 hPa 0,0 l/m 6,4 km/h (2 Bft) O-NO 67 5 min 0,0 UV-I 13,0 C 32,5 C 3,2 km/h (1 Bft)
04.07.2014 16:00 29,3 C 26,0 C 27,6 C 33,1 C 33,1 C 3,8 C 38 % 47 % 100 % 1010,6 hPa 0,0 l/m 4,5 km/h (1 Bft) O-NO 67 5 min 0,0 UV-I 13,5 C 33,1 C 2,4 km/h (1 Bft)
04.07.2014 16:05 29,3 C 26,0 C 27,6 C 33,1 C 33,1 C 3,8 C 38 % 48 % 100 % 1010,6 hPa 0,0 l/m 3,7 km/h (1 Bft) NO 45 5 min 0,0 UV-I 13,5 C 33,1 C 2,3 km/h (1 Bft)
04.07.2014 16:10 29,5 C 26,1 C 27,6 C 33,7 C 33,7 C 4,2 C 37 % 48 % 100 % 1010,6 hPa 0,0 l/m 2,9 km/h (1 Bft) O-SO 112 5 min 0,0 UV-I 13,3 C 33,7 C 5,0 km/h (1 Bft)
04.07.2014 16:15 29,5 C 26,1 C 27,8 C 34,2 C 34,2 C 4,7 C 37 % 46 % 100 % 1010,6 hPa 0,0 l/m 2,3 km/h (1 Bft) S-SO 157 5 min 0,0 UV-I 13,3 C 34,2 C 4,2 km/h (1 Bft)
04.07.2014 16:20 29,7 C 26,1 C 27,7 C 34,6 C 34,6 C 4,9 C 37 % 47 % 100 % 1010,6 hPa 0,0 l/m 2,4 km/h (1 Bft) NW 315 5 min 0,1 UV-I 13,4 C 34,6 C 1,6 km/h (1 Bft)
04.07.2014 16:25 29,8 C 26,1 C 27,7 C 35,0 C 35,0 C 5,2 C 37 % 47 % 100 % 1010,6 hPa 0,0 l/m 2,1 km/h (1 Bft) NO 45 5 min 0,1 UV-I 13,5 C 35,0 C 5,5 km/h (1 Bft)
04.07.2014 16:30 29,7 C 26,1 C 27,9 C 34,4 C 34,4 C 4,7 C 37 % 47 % 100 % 1010,6 hPa 0,0 l/m 3,7 km/h (1 Bft) O-NO 67 5 min 0,1 UV-I 13,4 C 34,4 C 6,4 km/h (2 Bft)
04.07.2014 16:35 29,6 C 26,1 C 27,6 C 34,0 C 34,0 C 4,4 C 34 % 45 % 100 % 1010,6 hPa 0,0 l/m 4,5 km/h (1 Bft) O 90 5 min 0,1 UV-I 12,1 C 34,0 C 4,7 km/h (1 Bft)
04.07.2014 16:40 29,5 C 26,1 C 27,6 C 33,7 C 33,7 C 4,2 C 35 % 46 % 100 % 1010,2 hPa 0,0 l/m 4,0 km/h (1 Bft) O 90 5 min 0,1 UV-I 12,4 C 33,7 C 4,8 km/h (1 Bft)
04.07.2014 16:45 29,6 C 26,1 C 27,7 C 33,9 C 33,9 C 4,3 C 36 % 47 % 100 % 1010,2 hPa 0,0 l/m 4,2 km/h (1 Bft) O-NO 67 5 min 0,1 UV-I 12,9 C 33,9 C 9,0 km/h (2 Bft)
04.07.2014 16:50 29,5 C 26,1 C 27,9 C 33,7 C 33,7 C 4,2 C 35 % 44 % 100 % 1010,2 hPa 0,0 l/m 5,3 km/h (1 Bft) O 90 5 min 0,1 UV-I 12,4 C 33,7 C 7,6 km/h (2 Bft)
04.07.2014 16:55 29,6 C 26,1 C 27,7 C 33,4 C 33,4 C 3,8 C 35 % 44 % 100 % 1010,2 hPa 0,0 l/m 6,4 km/h (2 Bft) O-NO 67 5 min 0,1 UV-I 12,5 C 33,4 C 8,9 km/h (2 Bft)
04.07.2014 17:00 29,6 C 26,1 C 27,7 C 33,0 C 33,0 C 3,4 C 35 % 44 % 89 % 1009,6 hPa 0,0 l/m 7,1 km/h (2 Bft) O-NO 67 5 min 0,1 UV-I 12,5 C 33,0 C 16,9 km/h (3 Bft)
04.07.2014 17:05 29,5 C 26,1 C 27,7 C 33,0 C 33,0 C 3,5 C 34 % 44 % 92 % 1009,6 hPa 0,0 l/m 6,9 km/h (2 Bft) O-NO 67 5 min 0,1 UV-I 12,0 C 33,0 C 9,5 km/h (2 Bft)
04.07.2014 17:10 29,5 C 26,1 C 27,6 C 33,1 C 33,1 C 3,6 C 36 % 45 % 95 % 1009,6 hPa 0,0 l/m 4,8 km/h (1 Bft) O-NO 67 5 min 0,1 UV-I 12,8 C 33,1 C 3,1 km/h (1 Bft)
04.07.2014 17:15 29,5 C 26,1 C 27,7 C 33,2 C 33,2 C 3,7 C 35 % 45 % 97 % 1009,6 hPa 0,0 l/m 4,5 km/h (1 Bft) O-NO 67 5 min 0,1 UV-I 12,4 C 33,2 C 6,8 km/h (2 Bft)
04.07.2014 17:20 29,4 C 26,4 C 27,6 C 32,9 C 32,9 C 3,5 C 35 % 44 % 92 % 1009,4 hPa 0,0 l/m 5,3 km/h (1 Bft) W-SW 247 5 min 0,0 UV-I 12,3 C 32,9 C 3,1 km/h (1 Bft)
04.07.2014 17:25 29,4 C 26,4 C 27,7 C 32,9 C 32,9 C 3,5 C 36 % 45 % 92 % 1009,4 hPa 0,0 l/m 5,1 km/h (1 Bft) SO 135 5 min 0,1 UV-I 12,7 C 32,9 C 4,2 km/h (1 Bft)
04.07.2014 17:30 29,5 C 26,4 C 27,6 C 33,5 C 33,5 C 4,0 C 34 % 44 % 100 % 1009,4 hPa 0,0 l/m 4,2 km/h (1 Bft) O-NO 67 5 min 0,0 UV-I 12,0 C 33,5 C 4,8 km/h (1 Bft)
04.07.2014 17:35 29,5 C 26,5 C 27,6 C 33,3 C 33,3 C 3,8 C 35 % 45 % 100 % 1009,4 hPa 0,0 l/m 5,1 km/h (1 Bft) O-NO 67 5 min 0,0 UV-I 12,4 C 33,3 C 9,2 km/h (2 Bft)
04.07.2014 17:40 29,4 C 26,5 C 27,5 C 32,6 C 32,6 C 3,2 C 35 % 45 % 84 % 1009,3 hPa 0,0 l/m 6,6 km/h (2 Bft) O-NO 67 0 min 0,0 UV-I 12,3 C 32,6 C 8,5 km/h (2 Bft)
04.07.2014 17:45 29,4 C 26,5 C 27,5 C 32,6 C 32,6 C 3,2 C 34 % 44 % 84 % 1009,3 hPa 0,0 l/m 7,1 km/h (2 Bft) O-NO 67 0 min 0,0 UV-I 11,9 C 32,6 C 6,4 km/h (2 Bft)
04.07.2014 17:50 29,2 C 26,5 C 27,2 C 32,0 C 32,0 C 2,8 C 35 % 45 % 74 % 1009,3 hPa 0,0 l/m 6,3 km/h (2 Bft) O-NO 67 0 min 0,1 UV-I 12,1 C 32,0 C 6,6 km/h (2 Bft)
04.07.2014 17:55 29,2 C 26,5 C 27,1 C 31,7 C 31,7 C 2,5 C 35 % 45 % 66 % 1009,3 hPa 0,0 l/m 5,3 km/h (1 Bft) NO 45 0 min 0,0 UV-I 12,1 C 31,7 C 4,8 km/h (1 Bft)
04.07.2014 18:00 29,1 C 26,5 C 27,1 C 31,4 C 31,4 C 2,3 C 35 % 45 % 61 % 1009,0 hPa 0,0 l/m 5,1 km/h (1 Bft) NW 315 0 min 0,0 UV-I 12,1 C 31,4 C 3,7 km/h (1 Bft)
04.07.2014 18:05 29,0 C 26,5 C 27,0 C 31,8 C 31,8 C 2,8 C 36 % 46 % 74 % 1009,0 hPa 0,0 l/m 4,2 km/h (1 Bft) O-NO 67 0 min 0,0 UV-I 12,4 C 31,8 C 5,0 km/h (1 Bft)
04.07.2014 18:10 28,9 C 26,5 C 26,9 C 31,6 C 31,6 C 2,7 C 36 % 45 % 71 % 1009,0 hPa 0,0 l/m 3,7 km/h (1 Bft) O-NO 67 0 min 0,0 UV-I 12,3 C 31,6 C 5,1 km/h (1 Bft)
04.07.2014 18:15 29,0 C 26,5 C 27,1 C 31,6 C 31,6 C 2,6 C 35 % 45 % 68 % 1009,0 hPa 0,0 l/m 5,3 km/h (1 Bft) NO 45 0 min 0,0 UV-I 12,0 C 31,6 C 6,4 km/h (2 Bft)
04.07.2014 18:20 28,9 C 26,5 C 26,9 C 31,6 C 31,6 C 2,7 C 35 % 45 % 71 % 1008,6 hPa 0,0 l/m 6,4 km/h (2 Bft) O-NO 67 0 min 0,0 UV-I 11,9 C 31,6 C 13,0 km/h (3 Bft)
04.07.2014 18:25 28,8 C 26,5 C 27,0 C 31,3 C 31,3 C 2,5 C 37 % 45 % 66 % 1008,6 hPa 0,0 l/m 6,1 km/h (2 Bft) O 90 0 min 0,0 UV-I 12,6 C 31,3 C 5,0 km/h (1 Bft)
04.07.2014 18:30 28,6 C 26,5 C 26,7 C 30,4 C 30,4 C 1,8 C 37 % 46 % 47 % 1008,6 hPa 0,0 l/m 6,0 km/h (2 Bft) O 90 0 min 0,0 UV-I 12,5 C 30,4 C 6,1 km/h (2 Bft)
04.07.2014 18:35 28,6 C 26,5 C 26,4 C 29,9 C 29,9 C 1,3 C 37 % 47 % 34 % 1008,6 hPa 0,0 l/m 5,1 km/h (1 Bft) O-NO 67 0 min 0,0 UV-I 12,5 C 29,9 C 4,0 km/h (1 Bft)
04.07.2014 18:40 28,4 C 26,5 C 26,2 C 29,2 C 29,2 C 0,8 C 38 % 48 % 21 % 1008,8 hPa 0,0 l/m 4,5 km/h (1 Bft) O-NO 67 0 min 0,0 UV-I 12,7 C 29,2 C 4,0 km/h (1 Bft)
04.07.2014 18:45 28,3 C 26,5 C 26,1 C 28,8 C 28,8 C 0,5 C 39 % 49 % 13 % 1008,8 hPa 0,0 l/m 4,0 km/h (1 Bft) O-NO 67 0 min 0,0 UV-I 13,0 C 28,8 C 4,0 km/h (1 Bft)
04.07.2014 18:50 27,9 C 26,5 C 25,9 C 28,5 C 28,5 C 0,6 C 39 % 49 % 16 % 1008,8 hPa 0,0 l/m 3,7 km/h (1 Bft) NO 45 0 min 0,0 UV-I 12,6 C 28,5 C 5,3 km/h (1 Bft)
04.07.2014 18:55 27,8 C 26,5 C 25,9 C 28,8 C 28,8 C 1,0 C 39 % 49 % 26 % 1008,8 hPa 0,0 l/m 3,9 km/h (1 Bft) O-NO 67 0 min 0,0 UV-I 12,6 C 28,8 C 5,5 km/h (1 Bft)
04.07.2014 19:00 27,8 C 26,6 C 26,1 C 29,6 C 29,6 C 1,8 C 39 % 49 % 47 % 1008,6 hPa 0,0 l/m 4,3 km/h (1 Bft) N-NO 22 0 min 0,0 UV-I 12,6 C 29,6 C 4,5 km/h (1 Bft)
04.07.2014 19:05 27,9 C 26,6 C 26,1 C 30,2 C 30,2 C 2,3 C 38 % 48 % 61 % 1008,6 hPa 0,0 l/m 5,1 km/h (1 Bft) NW 315 0 min 0,0 UV-I 12,2 C 30,2 C 7,7 km/h (2 Bft)
04.07.2014 19:10 27,9 C 26,6 C 26,1 C 30,5 C 30,5 C 2,6 C 38 % 48 % 68 % 1008,6 hPa 0,0 l/m 5,3 km/h (1 Bft) O-NO 67 0 min 0,0 UV-I 12,2 C 30,5 C 6,1 km/h (2 Bft)
04.07.2014 19:15 27,9 C 26,7 C 26,0 C 30,2 C 30,2 C 2,3 C 38 % 49 % 61 % 1008,6 hPa 0,0 l/m 5,3 km/h (1 Bft) O 90 0 min 0,0 UV-I 12,2 C 30,2 C 6,6 km/h (2 Bft)
04.07.2014 19:20 27,7 C 26,8 C 25,9 C 29,6 C 29,6 C 1,9 C 38 % 49 % 50 % 1008,6 hPa 0,0 l/m 5,3 km/h (1 Bft) O-NO 67 0 min 0,0 UV-I 12,1 C 29,6 C 5,3 km/h (1 Bft)
04.07.2014 19:25 27,6 C 26,8 C 25,9 C 29,7 C 29,7 C 2,1 C 38 % 49 % 55 % 1008,6 hPa 0,0 l/m 5,0 km/h (1 Bft) O-NO 67 0 min 0,0 UV-I 12,0 C 29,7 C 5,5 km/h (1 Bft)
04.07.2014 19:30 27,6 C 26,8 C 25,9 C 29,9 C 29,9 C 2,3 C 38 % 49 % 61 % 1008,6 hPa 0,0 l/m 4,8 km/h (1 Bft) O-NO 67 0 min 0,0 UV-I 12,0 C 29,9 C 10,0 km/h (2 Bft)
04.07.2014 19:35 27,6 C 26,8 C 25,9 C 29,5 C 29,5 C 1,9 C 38 % 50 % 50 % 1008,6 hPa 0,0 l/m 5,0 km/h (1 Bft) O-NO 67 0 min 0,0 UV-I 12,0 C 29,5 C 6,8 km/h (2 Bft)
04.07.2014 19:40 27,3 C 26,8 C 25,5 C 28,5 C 28,5 C 1,2 C 40 % 50 % 32 % 1008,4 hPa 0,0 l/m 4,8 km/h (1 Bft) O-NO 67 0 min 0,0 UV-I 12,5 C 28,5 C 6,0 km/h (2 Bft)
04.07.2014 19:45 27,2 C 26,8 C 25,4 C 28,0 C 28,0 C 0,8 C 40 % 49 % 21 % 1008,4 hPa 0,0 l/m 5,1 km/h (1 Bft) O-NO 67 0 min 0,0 UV-I 12,4 C 28,0 C 6,6 km/h (2 Bft)
04.07.2014 19:50 26,9 C 26,8 C 25,1 C 27,4 C 27,4 C 0,5 C 41 % 50 % 13 % 1008,4 hPa 0,0 l/m 5,5 km/h (1 Bft) O 90 0 min 0,0 UV-I 12,5 C 27,4 C 6,1 km/h (2 Bft)
04.07.2014 19:55 26,7 C 26,8 C 25,0 C 27,2 C 27,2 C 0,5 C 41 % 51 % 13 % 1008,4 hPa 0,0 l/m 4,8 km/h (1 Bft) O-NO 67 0 min 0,0 UV-I 12,3 C 27,2 C 3,5 km/h (1 Bft)
04.07.2014 20:00 26,6 C 26,8 C 24,7 C 26,9 C 26,9 C 0,3 C 42 % 52 % 8 % 1008,7 hPa 0,0 l/m 4,2 km/h (1 Bft) O 90 0 min 0,0 UV-I 12,6 C 26,9 C 4,7 km/h (1 Bft)
04.07.2014 20:05 26,3 C 26,8 C 24,4 C 26,4 C 26,4 C 0,1 C 43 % 53 % 3 % 1008,7 hPa 0,0 l/m 4,2 km/h (1 Bft) O-NO 67 0 min 0,0 UV-I 12,7 C 26,4 C 5,5 km/h (1 Bft)
04.07.2014 20:10 26,1 C 26,8 C 24,1 C 26,0 C 25,7 C 0,0 C 44 % 54 % 0 % 1008,7 hPa 0,0 l/m 4,8 km/h (1 Bft) O-NO 67 0 min 0,0 UV-I 12,9 C 25,7 C 6,9 km/h (2 Bft)
04.07.2014 20:15 25,9 C 26,8 C 24,1 C 25,7 C 25,3 C 0,0 C 44 % 54 % 0 % 1008,7 hPa 0,0 l/m 5,1 km/h (1 Bft) O-NO 67 0 min 0,0 UV-I 12,7 C 25,3 C 5,5 km/h (1 Bft)
04.07.2014 20:20 25,5 C 26,8 C 23,7 C 25,3 C 24,9 C 0,0 C 45 % 54 % 0 % 1008,1 hPa 0,0 l/m 5,5 km/h (1 Bft) O-NO 67 0 min 0,0 UV-I 12,7 C 24,9 C 6,8 km/h (2 Bft)
04.07.2014 20:25 25,3 C 26,8 C 23,7 C 25,1 C 24,7 C 0,0 C 45 % 54 % 0 % 1008,1 hPa 0,0 l/m 5,3 km/h (1 Bft) O-NO 67 0 min 0,0 UV-I 12,5 C 24,7 C 5,5 km/h (1 Bft)
04.07.2014 20:30 25,1 C 26,8 C 23,5 C 24,9 C 24,5 C 0,0 C 45 % 54 % 0 % 1008,1 hPa 0,0 l/m 5,0 km/h (1 Bft) O-NO 67 0 min 0,0 UV-I 12,3 C 24,5 C 7,1 km/h (2 Bft)
04.07.2014 20:35 25,0 C 26,8 C 23,3 C 24,8 C 24,3 C 0,0 C 46 % 55 % 0 % 1008,1 hPa 0,0 l/m 4,8 km/h (1 Bft) O-SO 112 0 min 0,0 UV-I 12,6 C 24,3 C 5,3 km/h (1 Bft)
04.07.2014 20:40 24,8 C 26,8 C 23,1 C 24,5 C 24,0 C 0,0 C 46 % 55 % 0 % 1007,8 hPa 0,0 l/m 5,0 km/h (1 Bft) O 90 0 min 0,0 UV-I 12,4 C 24,0 C 4,8 km/h (1 Bft)
04.07.2014 20:45 24,7 C 26,8 C 22,9 C 24,4 C 23,9 C 0,0 C 47 % 55 % 0 % 1007,8 hPa 0,0 l/m 4,7 km/h (1 Bft) O-NO 67 0 min 0,0 UV-I 12,6 C 23,9 C 3,4 km/h (1 Bft)
04.07.2014 20:50 24,5 C 26,8 C 22,8 C 24,2 C 23,6 C 0,0 C 47 % 56 % 0 % 1007,8 hPa 0,0 l/m 3,9 km/h (1 Bft) O-NO 67 0 min 0,0 UV-I 12,4 C 23,6 C 4,2 km/h (1 Bft)
04.07.2014 20:55 24,3 C 26,8 C 22,7 C 24,0 C 23,4 C 0,0 C 47 % 56 % 0 % 1007,8 hPa 0,0 l/m 3,9 km/h (1 Bft) O-NO 67 0 min 0,0 UV-I 12,3 C 23,4 C 3,9 km/h (1 Bft)
04.07.2014 21:00 24,0 C 26,8 C 22,5 C 23,7 C 23,2 C 0,0 C 48 % 57 % 0 % 1007,8 hPa 0,0 l/m 3,9 km/h (1 Bft) O 90 0 min 0,0 UV-I 12,3 C 23,2 C 3,9 km/h (1 Bft)
04.07.2014 21:05 23,9 C 26,8 C 22,3 C 23,6 C 23,0 C 0,0 C 48 % 57 % 0 % 1007,8 hPa 0,0 l/m 3,5 km/h (1 Bft) O-NO 67 0 min 0,0 UV-I 12,2 C 23,0 C 3,1 km/h (1 Bft)
04.07.2014 21:10 23,7 C 26,8 C 22,0 C 23,4 C 22,8 C 0,0 C 49 % 58 % 0 % 1007,8 hPa 0,0 l/m 2,4 km/h (1 Bft) O-NO 67 0 min 0,0 UV-I 12,3 C 22,8 C 2,1 km/h (1 Bft)
04.07.2014 21:15 23,5 C 26,8 C 21,8 C 23,2 C 22,5 C 0,0 C 49 % 58 % 0 % 1007,8 hPa 0,0 l/m 1,3 km/h (1 Bft) O-NO 67 0 min 0,0 UV-I 12,2 C 22,5 C 0,0 km/h (0 Bft)
04.07.2014 21:20 23,2 C 26,8 C 21,5 C 22,8 C 22,1 C 0,0 C 51 % 60 % 0 % 1008,4 hPa 0,0 l/m 0,8 km/h (0 Bft) O-NO 67 0 min 0,0 UV-I 12,5 C 22,1 C 2,6 km/h (1 Bft)
04.07.2014 21:25 23,1 C 26,8 C 21,3 C 22,7 C 21,9 C 0,0 C 51 % 60 % 0 % 1008,4 hPa 0,0 l/m 1,3 km/h (1 Bft) O-NO 67 0 min 0,0 UV-I 12,4 C 21,9 C 1,8 km/h (1 Bft)
04.07.2014 21:30 22,7 C 26,8 C 21,3 C 22,4 C 21,7 C 0,0 C 52 % 61 % 0 % 1008,4 hPa 0,0 l/m 1,9 km/h (1 Bft) O-NO 67 0 min 0,0 UV-I 12,3 C 21,7 C 3,7 km/h (1 Bft)
04.07.2014 21:35 22,7 C 26,8 C 21,1 C 22,3 C 21,6 C 0,0 C 53 % 62 % 0 % 1008,4 hPa 0,0 l/m 1,4 km/h (1 Bft) N-NO 22 0 min 0,0 UV-I 12,6 C 21,6 C 0,0 km/h (0 Bft)
04.07.2014 21:40 22,4 C 26,8 C 21,1 C 22,0 C 21,1 C 0,0 C 55 % 64 % 0 % 1008,0 hPa 0,0 l/m 0,5 km/h (0 Bft) N 360 0 min 0,0 UV-I 12,9 C 21,1 C 0,0 km/h (0 Bft)
04.07.2014 21:45 22,2 C 26,8 C 20,8 C 21,7 C 20,7 C 0,0 C 56 % 64 % 0 % 1008,0 hPa 0,0 l/m 0,0 km/h (0 Bft) N-NO 22 0 min 0,0 UV-I 13,0 C 20,7 C 0,0 km/h (0 Bft)
04.07.2014 21:50 21,9 C 26,8 C 20,5 C 21,3 C 20,2 C 0,0 C 56 % 64 % 0 % 1008,0 hPa 0,0 l/m 0,0 km/h (0 Bft) NO 45 0 min 0,0 UV-I 12,7 C 20,2 C 0,0 km/h (0 Bft)
04.07.2014 21:55 21,7 C 26,8 C 20,4 C 21,1 C 20,0 C 0,0 C 56 % 65 % 0 % 1008,0 hPa 0,0 l/m 0,0 km/h (0 Bft) O-NO 67 0 min 0,0 UV-I 12,5 C 20,0 C 0,0 km/h (0 Bft)
04.07.2014 22:00 21,5 C 26,8 C 20,4 C 20,9 C 19,8 C 0,0 C 58 % 65 % 0 % 1007,9 hPa 0,0 l/m 0,0 km/h (0 Bft) W 270 0 min 0,0 UV-I 12,9 C 19,8 C 0,0 km/h (0 Bft)
04.07.2014 22:05 21,0 C 26,8 C 20,1 C 20,5 C 19,6 C 0,0 C 60 % 67 % 0 % 1007,9 hPa 0,0 l/m 0,0 km/h (0 Bft) N-NW 337 0 min 0,0 UV-I 12,9 C 19,6 C 0,0 km/h (0 Bft)
04.07.2014 22:10 21,0 C 26,8 C 20,1 C 20,5 C 19,6 C 0,0 C 60 % 67 % 0 % 1007,9 hPa 0,0 l/m 0,0 km/h (0 Bft) N-NW 337 0 min 0,0 UV-I 12,9 C 19,6 C 0,0 km/h (0 Bft)
04.07.2014 22:15 20,9 C 26,8 C 20,0 C 20,4 C 19,5 C 0,0 C 60 % 67 % 0 % 1007,9 hPa 0,0 l/m 0,2 km/h (0 Bft) O-NO 67 0 min 0,0 UV-I 12,8 C 19,5 C 2,1 km/h (1 Bft)
04.07.2014 22:20 20,9 C 26,8 C 20,0 C 20,5 C 19,7 C 0,0 C 59 % 66 % 0 % 1007,8 hPa 0,0 l/m 0,6 km/h (0 Bft) NO 45 0 min 0,0 UV-I 12,6 C 19,7 C 0,0 km/h (0 Bft)
04.07.2014 22:25 20,8 C 26,8 C 20,0 C 20,5 C 19,9 C 0,0 C 59 % 67 % 0 % 1007,8 hPa 0,0 l/m 0,5 km/h (0 Bft) O-NO 67 0 min 0,0 UV-I 12,5 C 19,9 C 1,8 km/h (1 Bft)
04.07.2014 22:30 20,8 C 26,8 C 19,9 C 20,5 C 19,9 C 0,0 C 59 % 66 % 0 % 1007,8 hPa 0,0 l/m 0,2 km/h (0 Bft) O-NO 67 0 min 0,0 UV-I 12,5 C 19,9 C 2,7 km/h (1 Bft)
04.07.2014 22:35 20,8 C 26,8 C 19,9 C 20,5 C 19,9 C 0,0 C 59 % 66 % 0 % 1007,8 hPa 0,0 l/m 0,3 km/h (0 Bft) NO 45 0 min 0,0 UV-I 12,5 C 19,9 C 0,0 km/h (0 Bft)
04.07.2014 22:40 20,8 C 26,8 C 19,9 C 20,5 C 19,9 C 0,0 C 59 % 66 % 0 % 1007,6 hPa 0,0 l/m 0,5 km/h (0 Bft) O-NO 67 0 min 0,0 UV-I 12,5 C 19,9 C 0,0 km/h (0 Bft)
04.07.2014 22:45 20,8 C 26,8 C 19,9 C 20,5 C 19,9 C 0,0 C 60 % 67 % 0 % 1007,6 hPa 0,0 l/m 0,3 km/h (0 Bft) O-SO 112 0 min 0,0 UV-I 12,7 C 19,9 C 0,0 km/h (0 Bft)
04.07.2014 22:50 20,7 C 26,8 C 19,8 C 20,5 C 20,0 C 0,0 C 61 % 69 % 0 % 1007,6 hPa 0,0 l/m 0,2 km/h (0 Bft) S-SO 157 0 min 0,0 UV-I 12,9 C 20,0 C 0,0 km/h (0 Bft)
04.07.2014 22:55 20,7 C 26,8 C 19,9 C 20,5 C 20,0 C 0,0 C 61 % 68 % 0 % 1007,6 hPa 0,0 l/m 0,2 km/h (0 Bft) NW 315 0 min 0,0 UV-I 12,9 C 20,0 C 0,0 km/h (0 Bft)
04.07.2014 23:00 20,7 C 26,8 C 19,8 C 20,4 C 19,9 C 0,0 C 63 % 70 % 0 % 1007,4 hPa 0,0 l/m 0,0 km/h (0 Bft) W-SW 247 0 min 0,0 UV-I 13,4 C 19,9 C 0,0 km/h (0 Bft)
04.07.2014 23:05 20,5 C 26,8 C 19,7 C 20,3 C 19,8 C 0,0 C 66 % 71 % 0 % 1007,4 hPa 0,0 l/m 0,2 km/h (0 Bft) SO 135 0 min 0,0 UV-I 13,9 C 19,8 C 0,0 km/h (0 Bft)
04.07.2014 23:10 20,4 C 26,8 C 19,6 C 20,1 C 19,6 C 0,0 C 65 % 72 % 0 % 1007,4 hPa 0,0 l/m 0,2 km/h (0 Bft) N-NW 337 0 min 0,0 UV-I 13,6 C 19,6 C 0,0 km/h (0 Bft)
04.07.2014 23:15 20,3 C 26,8 C 19,6 C 20,1 C 19,7 C 0,0 C 65 % 71 % 0 % 1007,4 hPa 0,0 l/m 0,2 km/h (0 Bft) N-NW 337 0 min 0,0 UV-I 13,5 C 19,7 C 1,8 km/h (1 Bft)
04.07.2014 23:20 20,3 C 26,8 C 19,7 C 20,2 C 20,0 C 0,0 C 64 % 70 % 0 % 1007,2 hPa 0,0 l/m 0,3 km/h (0 Bft) N 360 0 min 0,0 UV-I 13,3 C 20,0 C 0,0 km/h (0 Bft)
04.07.2014 23:25 20,5 C 26,8 C 19,7 C 20,4 C 20,2 C 0,0 C 63 % 69 % 0 % 1007,2 hPa 0,0 l/m 0,5 km/h (0 Bft) N-NW 337 0 min 0,0 UV-I 13,2 C 20,2 C 2,1 km/h (1 Bft)
04.07.2014 23:30 20,5 C 26,8 C 19,9 C 20,4 C 20,3 C 0,0 C 62 % 69 % 0 % 1007,2 hPa 0,0 l/m 0,5 km/h (0 Bft) NO 45 0 min 0,0 UV-I 13,0 C 20,3 C 0,0 km/h (0 Bft)
04.07.2014 23:35 20,5 C 26,8 C 19,7 C 20,4 C 20,3 C 0,0 C 63 % 70 % 0 % 1007,2 hPa 0,0 l/m 0,5 km/h (0 Bft) O-NO 67 0 min 0,0 UV-I 13,2 C 20,3 C 1,8 km/h (1 Bft)
04.07.2014 23:40 20,6 C 26,8 C 19,7 C 20,5 C 20,4 C 0,0 C 62 % 69 % 0 % 1007,3 hPa 0,0 l/m 0,8 km/h (0 Bft) O-NO 67 0 min 0,0 UV-I 13,1 C 20,4 C 2,1 km/h (1 Bft)
04.07.2014 23:45 20,7 C 26,8 C 19,8 C 20,6 C 20,4 C 0,0 C 62 % 69 % 0 % 1007,3 hPa 0,0 l/m 1,1 km/h (1 Bft) O-NO 67 0 min 0,0 UV-I 13,2 C 20,4 C 0,0 km/h (0 Bft)
04.07.2014 23:50 20,6 C 26,8 C 19,9 C 20,6 C 20,5 C 0,0 C 62 % 69 % 0 % 1007,3 hPa 0,0 l/m 0,6 km/h (0 Bft) O 90 0 min 0,0 UV-I 13,1 C 20,5 C 1,6 km/h (1 Bft)
04.07.2014 23:55 20,6 C 26,8 C 19,9 C 20,5 C 20,4 C 0,0 C 62 % 69 % 0 % 1007,3 hPa 0,0 l/m 0,3 km/h (0 Bft) O-NO 67 0 min 0,0 UV-I 13,1 C 20,4 C 0,0 km/h (0 Bft)
05.07.2014 00:00 20,7 C 26,8 C 19,8 C 20,6 C 20,4 C 0,0 C 61 % 69 % 0 % 1007,1 hPa 0,0 l/m 0,0 km/h (0 Bft) N-NO 22 0 min 0,0 UV-I 12,9 C 20,4 C 0,0 km/h (0 Bft)
05.07.2014 00:05 20,7 C 26,8 C 19,8 C 20,6 C 20,3 C 0,0 C 61 % 69 % 0 % 1007,1 hPa 0,0 l/m 0,0 km/h (0 Bft) N-NO 22 0 min 0,0 UV-I 12,9 C 20,3 C 0,0 km/h (0 Bft)
05.07.2014 00:10 20,6 C 26,8 C 19,7 C 20,5 C 20,2 C 0,0 C 62 % 69 % 0 % 1007,1 hPa 0,0 l/m 0,0 km/h (0 Bft) N 360 0 min 0,0 UV-I 13,1 C 20,2 C 0,0 km/h (0 Bft)
05.07.2014 00:15 20,5 C 26,8 C 19,7 C 20,3 C 20,0 C 0,0 C 62 % 69 % 0 % 1007,1 hPa 0,0 l/m 0,0 km/h (0 Bft) N 360 0 min 0,0 UV-I 13,0 C 20,0 C 0,0 km/h (0 Bft)
05.07.2014 00:20 20,5 C 26,8 C 19,6 C 20,3 C 19,9 C 0,0 C 65 % 71 % 0 % 1007,2 hPa 0,0 l/m 0,0 km/h (0 Bft) W-SW 247 0 min 0,0 UV-I 13,7 C 19,9 C 0,0 km/h (0 Bft)
05.07.2014 00:25 20,4 C 26,8 C 19,6 C 20,2 C 19,9 C 0,0 C 66 % 72 % 0 % 1007,2 hPa 0,0 l/m 0,0 km/h (0 Bft) W-SW 247 0 min 0,0 UV-I 13,8 C 19,9 C 0,0 km/h (0 Bft)
05.07.2014 00:30 20,3 C 26,8 C 19,5 C 20,1 C 19,7 C 0,0 C 65 % 72 % 0 % 1007,2 hPa 0,0 l/m 0,0 km/h (0 Bft) O-NO 67 0 min 0,0 UV-I 13,5 C 19,7 C 0,0 km/h (0 Bft)
05.07.2014 00:35 20,3 C 26,8 C 19,5 C 20,1 C 19,7 C 0,0 C 65 % 73 % 0 % 1007,2 hPa 0,0 l/m 0,0 km/h (0 Bft) O-NO 67 0 min 0,0 UV-I 13,5 C 19,7 C 0,0 km/h (0 Bft)
05.07.2014 00:40 20,1 C 26,8 C 19,2 C 19,9 C 19,6 C 0,0 C 65 % 73 % 0 % 1006,9 hPa 0,0 l/m 0,0 km/h (0 Bft) O-NO 67 0 min 0,0 UV-I 13,3 C 19,6 C 0,0 km/h (0 Bft)
_ Min-Zeit 06:10 09:45 05:30 05:30 05:30 01:00 14:00 15:35 01:00 00:40 - 01:00 - - - 01:00 05:50 05:30 01:00
Minimum _ 10,2 C 24,8 C 11,8 C 10,4 C 10,3 C 0,0 C 34 % 43 % 0 % 1006,9 hPa - 0,0 km/h (0 Bft) - - - 0,0 UV-I 8,1 C 10,3 C 0,0 km/h (0 Bft)
_ Max-Zeit 13:35 19:20 16:30 09:50 09:50 07:45 07:10 04:40 07:05 01:20 01:00 15:35 - - 07:05 07:25 09:25 09:50 17:00
Maximum _ 30,3 C 26,8 C 27,9 C 37,0 C 37,0 C 12,8 C 89 % 86 % 100 % 1018,6 hPa 0,0 l/m 7,1 km/h
O-SO (2 Bft)
- - 5 min 0,2 UV-I 16,2 C 37,0 C 16,9 km/h
O-NO (3 Bft)
Durchschnitt _ 21,6 C 26,0 C 20,4 C 24,6 C 24,4 C 3,1 C 58 % 65 % 48 % 1013,4 hPa #0,0 l/m 1,9 km/h (1 Bft) O-NO - #0 min. 0,0 UV-I 12,0 C 24,4 C 2,4 km/h (1 Bft)
2014 www.wetterstation-wechselburg.de